This demonstration page uses our WeatherBlox Daily Observations layout. Learn more.

Left ArrowRight Arrow

Hourly Observations for September 3, 2015

Temp ( °F °C ) Dew Point ( °F °C ) Humidity (%) Winds ( mph kmh ) Pressure ( in mb ) Visibility ( mi km ) Precip ( " mm )
12:52 am 00:52 Clear 78 25.6 70 21.1 76 76 S 14 22 29.84 1011 10 16 0.00 0.00
1:52 am 01:52 Clear 77 25 70 21.1 79 79 SSE 12 19 29.83 1010 10 16 0.00 0.00
2:52 am 02:52 Clear 77 25 70 21.1 79 79 S 13 20 29.82 1010 10 16 0.00 0.00
3:52 am 03:52 Clear 76 24.4 69 20.6 79 79 SSE 13 20 29.82 1010 10 16 0.00 0.00
4:52 am 04:52 Clear 75 23.9 69 20.6 82 82 SSE 13 20 29.81 1010 10 16 0.00 0.00
5:52 am 05:52 Mostly Clear 74 23.3 69 20.6 85 85 SSE 13 20 29.81 1010 10 16 0.00 0.00
6:52 am 06:52 Mostly Sunny 74 23.3 68 20 82 82 SSE 12 19 29.82 1010 10 16 0.00 0.00
7:52 am 07:52 Mostly Sunny 75 23.9 68 20 79 79 SSE 9 15 29.83 1010 10 16 0.00 0.00
8:52 am 08:52 Mostly Sunny 77 25 68 20 74 74 SSE 14 22 29.83 1010 10 16 0.00 0.00
9:52 am 09:52 Partly Cloudy 80 26.7 68 20 67 67 S 14 22 29.84 1010 10 16 0.00 0.00
10:52 am 10:52 Mostly Sunny 82 27.8 69 20.6 65 65 SSE 13 20 29.84 1011 10 16 0.00 0.00
11:52 am 11:52 Mostly Sunny 85 29.4 69 20.6 59 59 SSE 14 22 29.83 1010 10 16 0.00 0.00
12:52 pm 12:52 Mostly Sunny 88 31.1 69 20.6 54 54 SSE 14 22 29.82 1010 10 16 0.00 0.00
1:52 pm 13:52 Mostly Sunny 90 32.2 69 20.6 50 50 S 16 26 29.80 1009 10 16 0.00 0.00
2:52 pm 14:52 Mostly Sunny 92 33.3 70 21.1 49 49 S 17 28 29.79 1009 10 16 0.00 0.00
3:52 pm 15:52 Partly Cloudy 93 33.9 69 20.6 46 46 S 16 26 29.77 1008 10 16 0.00 0.00
4:52 pm 16:52 Partly Cloudy 93 33.9 70 21.1 47 47 S 20 31 29.76 1008 10 16 0.00 0.00
5:52 pm 17:52 Partly Cloudy 92 33.3 71 21.7 51 51 SSE 18 30 29.76 1008 10 16 0.00 0.00
6:52 pm 18:52 Partly Cloudy 88 31.1 73 22.8 61 61 SE 17 28 29.76 1008 10 16 0.00 0.00
7:52 pm 19:52 Partly Cloudy 85 29.4 71 21.7 63 63 SSE 14 22 29.77 1008 10 16 0.00 0.00
8:52 pm 20:52 Mostly Clear 83 28.3 71 21.7 67 67 SSE 14 22 29.79 1009 10 16 0.00 0.00
9:52 pm 21:52 Clear 81 27.2 71 21.7 72 72 SSE 13 20 29.81 1010 10 16 0.00 0.00
10:52 pm 22:52 Mostly Cloudy 81 27.2 69 20.6 67 67 S 14 22 29.81 1010 10 16 0.00 0.00
11:52 pm 23:52 Partly Cloudy 80 26.7 69 20.6 69 69 S 14 22 29.81 1010 10 16 0.00 0.00

Powered by AerisWeather